Chetumal, Mexico

7:11 AM on June 29, 2017 (GMT +0000)
Chetumal International

Weather History for MMCM - November, 2012

Change the Weather History Date:

Tuesday, November 6, 2012

  Actual Average Record
Temperature  
Mean Temperature 80 °F -  
Max Temperature 91 °F 82 °F 93 °F (2015)
Min Temperature 70 °F 70 °F 66 °F (2007)
Cooling Degree Days 16    
Growing Degree Days 30 (Base 50)    
Moisture  
Dew Point 73 °F    
Average Humidity 72    
Maximum Humidity 93    
Minimum Humidity 32    
Precipitation  
Precipitation 0.00 in - - ()
Sea Level Pressure  
Sea Level Pressure 29.96 in    
Wind  
Wind Speed 4 mph ()    
Max Wind Speed 12 mph    
Max Gust Speed -    
Visibility 6.5 miles    
Events      
Averages and records for this station are not official NWS values.
T = Trace of Precipitation, MM = Missing Value Source: Averaged Metar Reports

Daily Weather History Graph

Daily Weather History Graph

Search for Another Location

Airport or City:

Trip Planner

Search our weather history database for the weather conditions in past years. The results will help you decide how hot, cold, wet, or windy it might be!

Date:

Astronomy

Nov. 06, 2012 Rise Set
Actual Time 5:55 AM CST 5:18 PM CST
Civil Twilight 5:32 AM CST 5:40 PM CST
Nautical Twilight 5:06 AM CST 6:06 PM CST
Astronomical Twilight 4:40 AM CST 6:32 PM CST
Moon 11:46 PM CST (11/6) 11:54 AM CST (11/6)
Length of Visible Light 12h 07m
Length of Day
11h 22m
Waning Gibbous, 53% of the Moon is Illuminated
Nov 6
Waning Gibbous
Nov 6
Last Quarter
Nov 13
New
Nov 20
First Quarter
Nov 28
Full

Hourly Weather History & Observations

Time (CST) Temp. Heat Index Dew Point Humidity Pressure Visibility Wind Dir Wind Speed Gust Speed Precip Events Conditions
2:50 AM 74 °F - 70 °F 83% 29.94 in 5 mi NW 4.5 mph - -   Scattered Clouds
5:50 AM 71 °F - 69 °F 93% 29.97 in 6 mi NNW 4.5 mph - -   Scattered Clouds
6:45 AM 80.6 °F 85.4 °F 73.4 °F 79% 29.96 in 7.0 mi Calm Calm - N/A   Scattered Clouds
7:45 AM 80.6 °F 85.4 °F 73.4 °F 79% 29.98 in 7.0 mi Calm Calm - N/A   Scattered Clouds
8:45 AM 82.4 °F 90.9 °F 77.0 °F 84% 30.01 in 7.0 mi Calm Calm - N/A   Scattered Clouds
8:50 AM 81 °F - 69 °F 58% 30.03 in 6 mi NNW 6.7 mph - -   Scattered Clouds
9:45 AM 82.4 °F 90.9 °F 77.0 °F 84% 30.00 in 7.0 mi Calm Calm - N/A   Scattered Clouds
10:45 AM 84.2 °F 94.1 °F 77.0 °F 79% 29.98 in 7.0 mi NNW 11.5 mph - N/A   Scattered Clouds
11:45 AM 102.2 °F 119.3 °F 77.0 °F 45% 30.04 in 7.0 mi NNW 11.5 mph - N/A   Scattered Clouds
11:50 AM 89 °F - 68 °F 40% 29.99 in 6 mi North 6.7 mph - -   Scattered Clouds
12:45 PM 84.2 °F 94.1 °F 77.0 °F 79% 29.93 in 7.0 mi NNW 11.5 mph - N/A   Scattered Clouds
1:45 PM 86.0 °F 96.9 °F 77.0 °F 74% 29.92 in 7.0 mi NNW 11.5 mph - N/A   Scattered Clouds
2:44 PM 86.0 °F 96.9 °F 77.0 °F 74% 29.93 in 7.0 mi North 5.8 mph - N/A   Scattered Clouds
2:50 PM 91 °F - 65 °F 32% 29.94 in 6 mi NW 6.7 mph - -   Scattered Clouds
3:45 PM 86.0 °F 96.9 °F 77.0 °F 74% 29.91 in 7.0 mi NNW 6.9 mph - N/A   Scattered Clouds
4:40 PM 86.0 °F 96.9 °F 77.0 °F 74% 29.91 in 7.0 mi Calm Calm - N/A   Scattered Clouds
5:45 PM 82.4 °F 87.2 °F 71.6 °F 70% 29.93 in 7.0 mi Calm Calm - N/A   Scattered Clouds
5:50 PM 79 °F - 70 °F 68% 29.95 in 5 mi SW 2.2 mph - -   Scattered Clouds
6:41 PM 80.6 °F 83.9 °F 69.8 °F 70% 29.93 in 7.0 mi Calm Calm - N/A   Scattered Clouds
7:44 PM 78.8 °F - 69.8 °F 74% 29.96 in 7.0 mi Calm Calm - N/A   Scattered Clouds
8:45 PM 71 °F - 69 °F 92% 29.98 in 5 mi WNW 2.2 mph - -   Scattered Clouds
8:46 PM 78.8 °F - 69.8 °F 74% 29.97 in 7.0 mi Calm Calm - N/A   Scattered Clouds
11:45 PM 72 °F - 69 °F 88% 30.01 in 5 mi NW 2.2 mph - -   Scattered Clouds